ORBCOMM FM103 [+] (40091 NORAD) Tracking and Keplerian Element Data

This shows tracking and keplerian element data for the satellite.

Feedback or suggestion? Click here.




ElementValue
Catalog40091
NameORBCOMM FM103 [+]
Epoch Orbit19623
Epoch Day198.94054942
Epoch Year2018
RAAN16.8582
Inclination47.0075
Eccentricity0.0002456
Argument of Perigee273.6986
Mean Anonmoly86.3617
Mean Motion14.54714037
Decay Rate-6.2E-07
L11 40091U 14040F 18198.94054942 -.00000062 00000-0 23921-4 0 9997
L22 40091 47.0075 16.8582 0002456 273.6986 86.3617 14.54714037196235

Live tracking and technical data element details for ORBCOMM FM103 [+] (NORAD 40091). ORBCOMM FM103 [+] can be tracked NOW for your location showing map with azimuth and elevation plus other details from your city location.

Track the satellite on the map from your city or location and see movement details for azimuth, elevation, latitude, longitude, range, height, and movement on the map or in text.







IsCatalogInMostPopularTable: catalog: 40091, numindb: 54
Update: records affected: 1



GetName: 40091 ORBCOMM FM103 [+]

Hit Count: updated at: Thu, 19 Jul 2018 03:45:12 GMT